owner,sensor,date,latitude,longitude,vertical_datum,sea_water_practical_salinity,qcFlag 
ENP,ioos.station.NOAA.NDBC:BNKF1:1,2017-12-01T00:00:00Z,25.0870,-80.5190,1.5,24.03,1111122 
ENP,ioos.station.NOAA.NDBC:BNKF1:1,2017-12-01T01:00:00Z,25.0870,-80.5190,1.5,24.04,1111122 
ENP,ioos.station.NOAA.NDBC:BNKF1:1,2017-12-01T02:00:00Z,25.0870,-80.5190,1.5,24.16,1111122 
ENP,ioos.station.NOAA.NDBC:BNKF1:1,2017-12-01T04:00:00Z,25.0870,-80.5190,1.5,24.32,1111122 
ENP,ioos.station.NOAA.NDBC:BNKF1:1,2017-12-01T05:00:00Z,25.0870,-80.5190,1.5,24.36,1111122 
ENP,ioos.station.NOAA.NDBC:BNKF1:1,2017-12-01T07:00:00Z,25.0870,-80.5190,1.5,24.39,1111122 
ENP,ioos.station.NOAA.NDBC:BNKF1:1,2017-12-01T08:00:00Z,25.0870,-80.5190,1.5,24.21,1111122 
ENP,ioos.station.NOAA.NDBC:BNKF1:1,2017-12-01T09:00:00Z,25.0870,-80.5190,1.5,24.18,1111122 
ENP,ioos.station.NOAA.NDBC:BNKF1:1,2017-12-01T10:00:00Z,25.0870,-80.5190,1.5,24.2,1111122 
ENP,ioos.station.NOAA.NDBC:BNKF1:1,2017-12-01T12:00:00Z,25.0870,-80.5190,1.5,23.75,1111122 
ENP,ioos.station.NOAA.NDBC:BNKF1:1,2017-12-01T13:00:00Z,25.0870,-80.5190,1.5,23.81,1111122 
ENP,ioos.station.NOAA.NDBC:BNKF1:1,2017-12-01T14:00:00Z,25.0870,-80.5190,1.5,23.91,1111122 
ENP,ioos.station.NOAA.NDBC:BNKF1:1,2017-12-01T15:00:00Z,25.0870,-80.5190,1.5,24.03,1111122 
ENP,ioos.station.NOAA.NDBC:BNKF1:1,2017-12-01T16:00:00Z,25.0870,-80.5190,1.5,24.07,1111122 
ENP,ioos.station.NOAA.NDBC:BNKF1:1,2017-12-01T17:00:00Z,25.0870,-80.5190,1.5,24.09,1111122 
ENP,ioos.station.NOAA.NDBC:BNKF1:1,2017-12-01T18:00:00Z,25.0870,-80.5190,1.5,24.04,1111122 
ENP,ioos.station.NOAA.NDBC:BNKF1:1,2017-12-01T19:00:00Z,25.0870,-80.5190,1.5,24.03,1111122 
ENP,ioos.station.NOAA.NDBC:BNKF1:1,2017-12-01T20:00:00Z,25.0870,-80.5190,1.5,24.05,1111122 
ENP,ioos.station.NOAA.NDBC:BNKF1:1,2017-12-02T08:00:00Z,25.0870,-80.5190,1.5,23.23,1111122 
ENP,ioos.station.NOAA.NDBC:BNKF1:1,2017-12-02T09:00:00Z,25.0870,-80.5190,1.5,23.03,1111122 
ENP,ioos.station.NOAA.NDBC:BNKF1:1,2017-12-02T10:00:00Z,25.0870,-80.5190,1.5,22.95,1111122 
ENP,ioos.station.NOAA.NDBC:BNKF1:1,2017-12-02T12:00:00Z,25.0870,-80.5190,1.5,22.64,1111122 
ENP,ioos.station.NOAA.NDBC:BNKF1:1,2017-12-02T13:00:00Z,25.0870,-80.5190,1.5,22.5,1111122 
ENP,ioos.station.NOAA.NDBC:BNKF1:1,2017-12-02T14:00:00Z,25.0870,-80.5190,1.5,22.62,1111122 
ENP,ioos.station.NOAA.NDBC:BNKF1:1,2017-12-02T15:00:00Z,25.0870,-80.5190,1.5,22.74,1111122 
ENP,ioos.station.NOAA.NDBC:BNKF1:1,2017-12-02T16:00:00Z,25.0870,-80.5190,1.5,22.82,1111122 
ENP,ioos.station.NOAA.NDBC:BNKF1:1,2017-12-02T17:00:00Z,25.0870,-80.5190,1.5,22.67,1111122 
ENP,ioos.station.NOAA.NDBC:BNKF1:1,2017-12-02T18:00:00Z,25.0870,-80.5190,1.5,22.7,1111122 
ENP,ioos.station.NOAA.NDBC:BNKF1:1,2017-12-02T20:00:00Z,25.0870,-80.5190,1.5,22.88,1111122 
ENP,ioos.station.NOAA.NDBC:BNKF1:1,2017-12-02T21:00:00Z,25.0870,-80.5190,1.5,22.82,1111122 
ENP,ioos.station.NOAA.NDBC:BNKF1:1,2017-12-02T22:00:00Z,25.0870,-80.5190,1.5,22.77,1111122 
ENP,ioos.station.NOAA.NDBC:BNKF1:1,2017-12-03T00:00:00Z,25.0870,-80.5190,1.5,22.78,1111122 
ENP,ioos.station.NOAA.NDBC:BNKF1:1,2017-12-03T01:00:00Z,25.0870,-80.5190,1.5,22.81,1111122 
ENP,ioos.station.NOAA.NDBC:BNKF1:1,2017-12-03T04:00:00Z,25.0870,-80.5190,1.5,23.22,1111122 
ENP,ioos.station.NOAA.NDBC:BNKF1:1,2017-12-03T08:00:00Z,25.0870,-80.5190,1.5,22.98,1111122 
ENP,ioos.station.NOAA.NDBC:BNKF1:1,2017-12-03T09:00:00Z,25.0870,-80.5190,1.5,23.02,1111122 
ENP,ioos.station.NOAA.NDBC:BNKF1:1,2017-12-03T13:00:00Z,25.0870,-80.5190,1.5,23.14,1111122 
ENP,ioos.station.NOAA.NDBC:BNKF1:1,2017-12-03T14:00:00Z,25.0870,-80.5190,1.5,23.21,1111122 
ENP,ioos.station.NOAA.NDBC:BNKF1:1,2017-12-03T15:00:00Z,25.0870,-80.5190,1.5,23.29,1111122 
ENP,ioos.station.NOAA.NDBC:BNKF1:1,2017-12-03T16:00:00Z,25.0870,-80.5190,1.5,23.42,1111122 
ENP,ioos.station.NOAA.NDBC:BNKF1:1,2017-12-03T17:00:00Z,25.0870,-80.5190,1.5,23.57,1111122 
ENP,ioos.station.NOAA.NDBC:BNKF1:1,2017-12-03T18:00:00Z,25.0870,-80.5190,1.5,23.47,1111122 
ENP,ioos.station.NOAA.NDBC:BNKF1:1,2017-12-03T19:00:00Z,25.0870,-80.5190,1.5,23.37,1111122 
ENP,ioos.station.NOAA.NDBC:BNKF1:1,2017-12-03T20:00:00Z,25.0870,-80.5190,1.5,23.34,1111122 
ENP,ioos.station.NOAA.NDBC:BNKF1:1,2017-12-03T21:00:00Z,25.0870,-80.5190,1.5,23.33,1111122 
ENP,ioos.station.NOAA.NDBC:BNKF1:1,2017-12-03T22:00:00Z,25.0870,-80.5190,1.5,23.39,1111122 
ENP,ioos.station.NOAA.NDBC:BNKF1:1,2017-12-03T23:00:00Z,25.0870,-80.5190,1.5,23.41,1111122 
ENP,ioos.station.NOAA.NDBC:BNKF1:1,2017-12-04T02:00:00Z,25.0870,-80.5190,1.5,23.45,1111122 
ENP,ioos.station.NOAA.NDBC:BNKF1:1,2017-12-04T04:00:00Z,25.0870,-80.5190,1.5,23.32,1111122 
ENP,ioos.station.NOAA.NDBC:BNKF1:1,2017-12-04T05:00:00Z,25.0870,-80.5190,1.5,23.27,1111122 
ENP,ioos.station.NOAA.NDBC:BNKF1:1,2017-12-04T07:00:00Z,25.0870,-80.5190,1.5,23.32,1111122 
ENP,ioos.station.NOAA.NDBC:BNKF1:1,2017-12-04T08:00:00Z,25.0870,-80.5190,1.5,23.36,1111122 
ENP,ioos.station.NOAA.NDBC:BNKF1:1,2017-12-04T09:00:00Z,25.0870,-80.5190,1.5,22.91,1111122 
ENP,ioos.station.NOAA.NDBC:BNKF1:1,2017-12-04T10:00:00Z,25.0870,-80.5190,1.5,22.75,1111122 
ENP,ioos.station.NOAA.NDBC:BNKF1:1,2017-12-04T12:00:00Z,25.0870,-80.5190,1.5,22.75,1111122 
ENP,ioos.station.NOAA.NDBC:BNKF1:1,2017-12-04T13:00:00Z,25.0870,-80.5190,1.5,22.79,1111122 
ENP,ioos.station.NOAA.NDBC:BNKF1:1,2017-12-04T15:00:00Z,25.0870,-80.5190,1.5,22.86,1111122 
ENP,ioos.station.NOAA.NDBC:BNKF1:1,2017-12-04T17:00:00Z,25.0870,-80.5190,1.5,22.88,1111122 
ENP,ioos.station.NOAA.NDBC:BNKF1:1,2017-12-04T18:00:00Z,25.0870,-80.5190,1.5,23.02,1111122 
ENP,ioos.station.NOAA.NDBC:BNKF1:1,2017-12-04T19:00:00Z,25.0870,-80.5190,1.5,23.02,1111122 
ENP,ioos.station.NOAA.NDBC:BNKF1:1,2017-12-04T20:00:00Z,25.0870,-80.5190,1.5,23.07,1111122 
ENP,ioos.station.NOAA.NDBC:BNKF1:1,2017-12-04T21:00:00Z,25.0870,-80.5190,1.5,23.14,1111122 
ENP,ioos.station.NOAA.NDBC:BNKF1:1,2017-12-04T22:00:00Z,25.0870,-80.5190,1.5,23.03,1111122 
ENP,ioos.station.NOAA.NDBC:BNKF1:1,2017-12-04T23:00:00Z,25.0870,-80.5190,1.5,23.23,1111122 
ENP,ioos.station.NOAA.NDBC:BNKF1:1,2017-12-05T00:00:00Z,25.0870,-80.5190,1.5,23.3,1111122 
ENP,ioos.station.NOAA.NDBC:BNKF1:1,2017-12-05T13:00:00Z,25.0870,-80.5190,1.5,23.9,1111122 
ENP,ioos.station.NOAA.NDBC:BNKF1:1,2017-12-05T14:00:00Z,25.0870,-80.5190,1.5,23.98,1111122 
ENP,ioos.station.NOAA.NDBC:BNKF1:1,2017-12-05T15:00:00Z,25.0870,-80.5190,1.5,24.04,1111122 
ENP,ioos.station.NOAA.NDBC:BNKF1:1,2017-12-05T18:00:00Z,25.0870,-80.5190,1.5,24.04,1111122 
ENP,ioos.station.NOAA.NDBC:BNKF1:1,2017-12-05T19:00:00Z,25.0870,-80.5190,1.5,24.17,1111122 
ENP,ioos.station.NOAA.NDBC:BNKF1:1,2017-12-05T20:00:00Z,25.0870,-80.5190,1.5,24.22,1111122 
ENP,ioos.station.NOAA.NDBC:BNKF1:1,2017-12-05T22:00:00Z,25.0870,-80.5190,1.5,24.42,1111122 
ENP,ioos.station.NOAA.NDBC:BNKF1:1,2017-12-05T23:00:00Z,25.0870,-80.5190,1.5,24.47,1111122 
ENP,ioos.station.NOAA.NDBC:BNKF1:1,2017-12-06T01:00:00Z,25.0870,-80.5190,1.5,24.39,1111122 
ENP,ioos.station.NOAA.NDBC:BNKF1:1,2017-12-06T02:00:00Z,25.0870,-80.5190,1.5,24.2,1111122 
ENP,ioos.station.NOAA.NDBC:BNKF1:1,2017-12-06T04:00:00Z,25.0870,-80.5190,1.5,24.09,1111122 
ENP,ioos.station.NOAA.NDBC:BNKF1:1,2017-12-06T05:00:00Z,25.0870,-80.5190,1.5,24.08,1111122 
ENP,ioos.station.NOAA.NDBC:BNKF1:1,2017-12-06T07:00:00Z,25.0870,-80.5190,1.5,24.09,1111122 
ENP,ioos.station.NOAA.NDBC:BNKF1:1,2017-12-06T08:00:00Z,25.0870,-80.5190,1.5,24.1,1111122 
ENP,ioos.station.NOAA.NDBC:BNKF1:1,2017-12-06T09:00:00Z,25.0870,-80.5190,1.5,24.08,1111122 
ENP,ioos.station.NOAA.NDBC:BNKF1:1,2017-12-06T10:00:00Z,25.0870,-80.5190,1.5,24.08,1111122 
ENP,ioos.station.NOAA.NDBC:BNKF1:1,2017-12-06T13:00:00Z,25.0870,-80.5190,1.5,24.13,1111122 
ENP,ioos.station.NOAA.NDBC:BNKF1:1,2017-12-06T15:00:00Z,25.0870,-80.5190,1.5,24.15,1111122 
ENP,ioos.station.NOAA.NDBC:BNKF1:1,2017-12-06T16:00:00Z,25.0870,-80.5190,1.5,24.16,1111122 
ENP,ioos.station.NOAA.NDBC:BNKF1:1,2017-12-06T18:00:00Z,25.0870,-80.5190,1.5,24.19,1111122 
ENP,ioos.station.NOAA.NDBC:BNKF1:1,2017-12-06T19:00:00Z,25.0870,-80.5190,1.5,24.21,1111122 
ENP,ioos.station.NOAA.NDBC:BNKF1:1,2017-12-06T20:00:00Z,25.0870,-80.5190,1.5,24.23,1111122 
ENP,ioos.station.NOAA.NDBC:BNKF1:1,2017-12-06T21:00:00Z,25.0870,-80.5190,1.5,24.25,1111122 
ENP,ioos.station.NOAA.NDBC:BNKF1:1,2017-12-06T22:00:00Z,25.0870,-80.5190,1.5,24.28,1111122 
ENP,ioos.station.NOAA.NDBC:BNKF1:1,2017-12-06T23:00:00Z,25.0870,-80.5190,1.5,24.26,1111122 
ENP,ioos.station.NOAA.NDBC:BNKF1:1,2017-12-07T00:00:00Z,25.0870,-80.5190,1.5,24.26,1111122 
ENP,ioos.station.NOAA.NDBC:BNKF1:1,2017-12-07T01:00:00Z,25.0870,-80.5190,1.5,24.25,1111122 
ENP,ioos.station.NOAA.NDBC:BNKF1:1,2017-12-07T04:00:00Z,25.0870,-80.5190,1.5,24.28,1111122 
ENP,ioos.station.NOAA.NDBC:BNKF1:1,2017-12-07T07:00:00Z,25.0870,-80.5190,1.5,24.29,1111122 
ENP,ioos.station.NOAA.NDBC:BNKF1:1,2017-12-07T08:00:00Z,25.0870,-80.5190,1.5,24.29,1111122 
ENP,ioos.station.NOAA.NDBC:BNKF1:1,2017-12-07T09:00:00Z,25.0870,-80.5190,1.5,24.32,1111122 
ENP,ioos.station.NOAA.NDBC:BNKF1:1,2017-12-07T10:00:00Z,25.0870,-80.5190,1.5,24.3,1111122 
ENP,ioos.station.NOAA.NDBC:BNKF1:1,2017-12-07T13:00:00Z,25.0870,-80.5190,1.5,24.25,1111122 
ENP,ioos.station.NOAA.NDBC:BNKF1:1,2017-12-07T14:00:00Z,25.0870,-80.5190,1.5,24.25,1111122 
ENP,ioos.station.NOAA.NDBC:BNKF1:1,2017-12-07T15:00:00Z,25.0870,-80.5190,1.5,24.23,1111122 
ENP,ioos.station.NOAA.NDBC:BNKF1:1,2017-12-07T16:00:00Z,25.0870,-80.5190,1.5,24.23,1111122 
ENP,ioos.station.NOAA.NDBC:BNKF1:1,2017-12-07T17:00:00Z,25.0870,-80.5190,1.5,24.23,1111122 
ENP,ioos.station.NOAA.NDBC:BNKF1:1,2017-12-07T18:00:00Z,25.0870,-80.5190,1.5,24.24,1111122 
ENP,ioos.station.NOAA.NDBC:BNKF1:1,2017-12-07T20:00:00Z,25.0870,-80.5190,1.5,24.27,1111122 
ENP,ioos.station.NOAA.NDBC:BNKF1:1,2017-12-07T22:00:00Z,25.0870,-80.5190,1.5,24.28,1111122 
ENP,ioos.station.NOAA.NDBC:BNKF1:1,2017-12-07T23:00:00Z,25.0870,-80.5190,1.5,24.28,1111122 
ENP,ioos.station.NOAA.NDBC:BNKF1:1,2017-12-08T00:00:00Z,25.0870,-80.5190,1.5,24.28,1111122 
ENP,ioos.station.NOAA.NDBC:BNKF1:1,2017-12-08T01:00:00Z,25.0870,-80.5190,1.5,24.28,1111122 
ENP,ioos.station.NOAA.NDBC:BNKF1:1,2017-12-08T02:00:00Z,25.0870,-80.5190,1.5,24.27,1111122 
ENP,ioos.station.NOAA.NDBC:BNKF1:1,2017-12-08T04:00:00Z,25.0870,-80.5190,1.5,24.28,1111122 
ENP,ioos.station.NOAA.NDBC:BNKF1:1,2017-12-08T05:00:00Z,25.0870,-80.5190,1.5,24.28,1111122 
ENP,ioos.station.NOAA.NDBC:BNKF1:1,2017-12-08T07:00:00Z,25.0870,-80.5190,1.5,24.28,1111122 
ENP,ioos.station.NOAA.NDBC:BNKF1:1,2017-12-08T08:00:00Z,25.0870,-80.5190,1.5,24.28,1111122 
ENP,ioos.station.NOAA.NDBC:BNKF1:1,2017-12-08T09:00:00Z,25.0870,-80.5190,1.5,24.28,1111122 
ENP,ioos.station.NOAA.NDBC:BNKF1:1,2017-12-08T10:00:00Z,25.0870,-80.5190,1.5,24.34,1111122 
ENP,ioos.station.NOAA.NDBC:BNKF1:1,2017-12-08T12:00:00Z,25.0870,-80.5190,1.5,24.48,1111122 
ENP,ioos.station.NOAA.NDBC:BNKF1:1,2017-12-08T14:00:00Z,25.0870,-80.5190,1.5,24.51,1111122 
ENP,ioos.station.NOAA.NDBC:BNKF1:1,2017-12-08T15:00:00Z,25.0870,-80.5190,1.5,24.51,1111122 
ENP,ioos.station.NOAA.NDBC:BNKF1:1,2017-12-08T17:00:00Z,25.0870,-80.5190,1.5,24.58,1111122 
ENP,ioos.station.NOAA.NDBC:BNKF1:1,2017-12-08T18:00:00Z,25.0870,-80.5190,1.5,24.6,1111122 
ENP,ioos.station.NOAA.NDBC:BNKF1:1,2017-12-08T19:00:00Z,25.0870,-80.5190,1.5,24.61,1111122 
ENP,ioos.station.NOAA.NDBC:BNKF1:1,2017-12-08T20:00:00Z,25.0870,-80.5190,1.5,24.5,1111122 
ENP,ioos.station.NOAA.NDBC:BNKF1:1,2017-12-08T21:00:00Z,25.0870,-80.5190,1.5,24.59,1111122 
ENP,ioos.station.NOAA.NDBC:BNKF1:1,2017-12-08T23:00:00Z,25.0870,-80.5190,1.5,24.37,1111122 
ENP,ioos.station.NOAA.NDBC:BNKF1:1,2017-12-09T00:00:00Z,25.0870,-80.5190,1.5,24.48,1111122 
ENP,ioos.station.NOAA.NDBC:BNKF1:1,2017-12-09T01:00:00Z,25.0870,-80.5190,1.5,24.47,1111122 
ENP,ioos.station.NOAA.NDBC:BNKF1:1,2017-12-09T02:00:00Z,25.0870,-80.5190,1.5,24.45,1111122 
ENP,ioos.station.NOAA.NDBC:BNKF1:1,2017-12-09T04:00:00Z,25.0870,-80.5190,1.5,24.39,1111122 
ENP,ioos.station.NOAA.NDBC:BNKF1:1,2017-12-09T05:00:00Z,25.0870,-80.5190,1.5,24.16,1111122 
ENP,ioos.station.NOAA.NDBC:BNKF1:1,2017-12-09T07:00:00Z,25.0870,-80.5190,1.5,24.17,1111122 
ENP,ioos.station.NOAA.NDBC:BNKF1:1,2017-12-09T08:00:00Z,25.0870,-80.5190,1.5,24.11,1111122 
ENP,ioos.station.NOAA.NDBC:BNKF1:1,2017-12-09T09:00:00Z,25.0870,-80.5190,1.5,24.18,1111122 
ENP,ioos.station.NOAA.NDBC:BNKF1:1,2017-12-09T11:00:00Z,25.0870,-80.5190,1.5,24.21,1111122 
ENP,ioos.station.NOAA.NDBC:BNKF1:1,2017-12-09T13:00:00Z,25.0870,-80.5190,1.5,24.25,1111122 
ENP,ioos.station.NOAA.NDBC:BNKF1:1,2017-12-09T14:00:00Z,25.0870,-80.5190,1.5,24.23,1111122 
ENP,ioos.station.NOAA.NDBC:BNKF1:1,2017-12-09T15:00:00Z,25.0870,-80.5190,1.5,24.19,1111122 
ENP,ioos.station.NOAA.NDBC:BNKF1:1,2017-12-09T16:00:00Z,25.0870,-80.5190,1.5,24.0,1111122 
ENP,ioos.station.NOAA.NDBC:BNKF1:1,2017-12-09T17:00:00Z,25.0870,-80.5190,1.5,23.85,1111122 
ENP,ioos.station.NOAA.NDBC:BNKF1:1,2017-12-09T18:00:00Z,25.0870,-80.5190,1.5,23.9,1111122 
ENP,ioos.station.NOAA.NDBC:BNKF1:1,2017-12-09T19:00:00Z,25.0870,-80.5190,1.5,24.07,1111122 
ENP,ioos.station.NOAA.NDBC:BNKF1:1,2017-12-09T20:00:00Z,25.0870,-80.5190,1.5,23.97,1111122 
ENP,ioos.station.NOAA.NDBC:BNKF1:1,2017-12-09T21:00:00Z,25.0870,-80.5190,1.5,23.99,1111122 
ENP,ioos.station.NOAA.NDBC:BNKF1:1,2017-12-09T22:00:00Z,25.0870,-80.5190,1.5,24.01,1111122 
ENP,ioos.station.NOAA.NDBC:BNKF1:1,2017-12-09T23:00:00Z,25.0870,-80.5190,1.5,23.99,1111122 
ENP,ioos.station.NOAA.NDBC:BNKF1:1,2017-12-10T00:00:00Z,25.0870,-80.5190,1.5,23.98,1111122 
ENP,ioos.station.NOAA.NDBC:BNKF1:1,2017-12-10T01:00:00Z,25.0870,-80.5190,1.5,23.98,1111122 
ENP,ioos.station.NOAA.NDBC:BNKF1:1,2017-12-10T02:00:00Z,25.0870,-80.5190,1.5,24.01,1111122 
ENP,ioos.station.NOAA.NDBC:BNKF1:1,2017-12-10T04:00:00Z,25.0870,-80.5190,1.5,23.78,1111122 
ENP,ioos.station.NOAA.NDBC:BNKF1:1,2017-12-10T05:00:00Z,25.0870,-80.5190,1.5,23.63,1111122 
ENP,ioos.station.NOAA.NDBC:BNKF1:1,2017-12-10T07:00:00Z,25.0870,-80.5190,1.5,23.69,1111122 
ENP,ioos.station.NOAA.NDBC:BNKF1:1,2017-12-10T08:00:00Z,25.0870,-80.5190,1.5,23.74,1111122 
ENP,ioos.station.NOAA.NDBC:BNKF1:1,2017-12-10T09:00:00Z,25.0870,-80.5190,1.5,23.76,1111122 
ENP,ioos.station.NOAA.NDBC:BNKF1:1,2017-12-10T10:00:00Z,25.0870,-80.5190,1.5,23.71,1111122 
ENP,ioos.station.NOAA.NDBC:BNKF1:1,2017-12-10T12:00:00Z,25.0870,-80.5190,1.5,23.78,1111122 
ENP,ioos.station.NOAA.NDBC:BNKF1:1,2017-12-10T14:00:00Z,25.0870,-80.5190,1.5,24.07,1111122 
ENP,ioos.station.NOAA.NDBC:BNKF1:1,2017-12-10T15:00:00Z,25.0870,-80.5190,1.5,24.07,1111122 
ENP,ioos.station.NOAA.NDBC:BNKF1:1,2017-12-10T16:00:00Z,25.0870,-80.5190,1.5,23.99,1111122 
ENP,ioos.station.NOAA.NDBC:BNKF1:1,2017-12-10T17:00:00Z,25.0870,-80.5190,1.5,23.39,1111122 
ENP,ioos.station.NOAA.NDBC:BNKF1:1,2017-12-10T18:00:00Z,25.0870,-80.5190,1.5,23.04,1111122 
ENP,ioos.station.NOAA.NDBC:BNKF1:1,2017-12-10T19:00:00Z,25.0870,-80.5190,1.5,22.93,1111122 
ENP,ioos.station.NOAA.NDBC:BNKF1:1,2017-12-10T20:00:00Z,25.0870,-80.5190,1.5,22.94,1111122 
ENP,ioos.station.NOAA.NDBC:BNKF1:1,2017-12-10T21:00:00Z,25.0870,-80.5190,1.5,22.89,1111122 
ENP,ioos.station.NOAA.NDBC:BNKF1:1,2017-12-10T22:00:00Z,25.0870,-80.5190,1.5,22.65,1111122 
ENP,ioos.station.NOAA.NDBC:BNKF1:1,2017-12-10T23:00:00Z,25.0870,-80.5190,1.5,22.54,1111122 
ENP,ioos.station.NOAA.NDBC:BNKF1:1,2017-12-11T00:00:00Z,25.0870,-80.5190,1.5,22.64,1111122 
ENP,ioos.station.NOAA.NDBC:BNKF1:1,2017-12-11T01:00:00Z,25.0870,-80.5190,1.5,22.67,1111122 
ENP,ioos.station.NOAA.NDBC:BNKF1:1,2017-12-11T02:00:00Z,25.0870,-80.5190,1.5,22.55,1111122 
ENP,ioos.station.NOAA.NDBC:BNKF1:1,2017-12-11T04:00:00Z,25.0870,-80.5190,1.5,22.74,1111122 
ENP,ioos.station.NOAA.NDBC:BNKF1:1,2017-12-11T05:00:00Z,25.0870,-80.5190,1.5,22.86,1111122 
ENP,ioos.station.NOAA.NDBC:BNKF1:1,2017-12-11T07:00:00Z,25.0870,-80.5190,1.5,23.07,1111122 
ENP,ioos.station.NOAA.NDBC:BNKF1:1,2017-12-11T08:00:00Z,25.0870,-80.5190,1.5,23.23,1111122 
ENP,ioos.station.NOAA.NDBC:BNKF1:1,2017-12-11T09:00:00Z,25.0870,-80.5190,1.5,23.34,1111122 
ENP,ioos.station.NOAA.NDBC:BNKF1:1,2017-12-11T10:00:00Z,25.0870,-80.5190,1.5,23.3,1111122 
ENP,ioos.station.NOAA.NDBC:BNKF1:1,2017-12-11T12:00:00Z,25.0870,-80.5190,1.5,23.39,1111122 
ENP,ioos.station.NOAA.NDBC:BNKF1:1,2017-12-11T13:00:00Z,25.0870,-80.5190,1.5,23.5,1111122 
ENP,ioos.station.NOAA.NDBC:BNKF1:1,2017-12-11T14:00:00Z,25.0870,-80.5190,1.5,23.53,1111122 
ENP,ioos.station.NOAA.NDBC:BNKF1:1,2017-12-11T15:00:00Z,25.0870,-80.5190,1.5,23.33,1111122 
ENP,ioos.station.NOAA.NDBC:BNKF1:1,2017-12-11T16:00:00Z,25.0870,-80.5190,1.5,23.1,1111122 
ENP,ioos.station.NOAA.NDBC:BNKF1:1,2017-12-11T17:00:00Z,25.0870,-80.5190,1.5,22.91,1111122 
ENP,ioos.station.NOAA.NDBC:BNKF1:1,2017-12-11T18:00:00Z,25.0870,-80.5190,1.5,22.8,1111122 
ENP,ioos.station.NOAA.NDBC:BNKF1:1,2017-12-11T19:00:00Z,25.0870,-80.5190,1.5,22.83,1111122 
ENP,ioos.station.NOAA.NDBC:BNKF1:1,2017-12-11T20:00:00Z,25.0870,-80.5190,1.5,22.87,1111122 
ENP,ioos.station.NOAA.NDBC:BNKF1:1,2017-12-11T21:00:00Z,25.0870,-80.5190,1.5,22.91,1111122 
ENP,ioos.station.NOAA.NDBC:BNKF1:1,2017-12-11T22:00:00Z,25.0870,-80.5190,1.5,22.91,1111122 
ENP,ioos.station.NOAA.NDBC:BNKF1:1,2017-12-11T23:00:00Z,25.0870,-80.5190,1.5,22.91,1111122 
ENP,ioos.station.NOAA.NDBC:BNKF1:1,2017-12-12T00:00:00Z,25.0870,-80.5190,1.5,22.91,1111122 
ENP,ioos.station.NOAA.NDBC:BNKF1:1,2017-12-12T01:00:00Z,25.0870,-80.5190,1.5,22.92,1111122 
ENP,ioos.station.NOAA.NDBC:BNKF1:1,2017-12-12T02:00:00Z,25.0870,-80.5190,1.5,22.93,1111122 
ENP,ioos.station.NOAA.NDBC:BNKF1:1,2017-12-12T05:00:00Z,25.0870,-80.5190,1.5,22.93,1111122 
ENP,ioos.station.NOAA.NDBC:BNKF1:1,2017-12-12T07:00:00Z,25.0870,-80.5190,1.5,22.92,1111122 
ENP,ioos.station.NOAA.NDBC:BNKF1:1,2017-12-12T08:00:00Z,25.0870,-80.5190,1.5,22.93,1111122 
ENP,ioos.station.NOAA.NDBC:BNKF1:1,2017-12-12T09:00:00Z,25.0870,-80.5190,1.5,22.95,1111122 
ENP,ioos.station.NOAA.NDBC:BNKF1:1,2017-12-12T10:00:00Z,25.0870,-80.5190,1.5,22.93,1111122 
ENP,ioos.station.NOAA.NDBC:BNKF1:1,2017-12-12T13:00:00Z,25.0870,-80.5190,1.5,22.84,1111122 
ENP,ioos.station.NOAA.NDBC:BNKF1:1,2017-12-12T14:00:00Z,25.0870,-80.5190,1.5,22.88,1111122 
ENP,ioos.station.NOAA.NDBC:BNKF1:1,2017-12-12T15:00:00Z,25.0870,-80.5190,1.5,22.92,1111122 
ENP,ioos.station.NOAA.NDBC:BNKF1:1,2017-12-12T16:00:00Z,25.0870,-80.5190,1.5,22.79,1111122 
ENP,ioos.station.NOAA.NDBC:BNKF1:1,2017-12-12T17:00:00Z,25.0870,-80.5190,1.5,22.74,1111122 
ENP,ioos.station.NOAA.NDBC:BNKF1:1,2017-12-12T18:00:00Z,25.0870,-80.5190,1.5,22.72,1111122 
ENP,ioos.station.NOAA.NDBC:BNKF1:1,2017-12-13T09:00:00Z,25.0870,-80.5190,1.5,23.51,1111122 
ENP,ioos.station.NOAA.NDBC:BNKF1:1,2017-12-13T10:00:00Z,25.0870,-80.5190,1.5,23.51,1111122 
ENP,ioos.station.NOAA.NDBC:BNKF1:1,2017-12-13T12:00:00Z,25.0870,-80.5190,1.5,23.64,1111122 
ENP,ioos.station.NOAA.NDBC:BNKF1:1,2017-12-13T13:00:00Z,25.0870,-80.5190,1.5,23.7,1111122 
ENP,ioos.station.NOAA.NDBC:BNKF1:1,2017-12-13T14:00:00Z,25.0870,-80.5190,1.5,23.71,1111122 
ENP,ioos.station.NOAA.NDBC:BNKF1:1,2017-12-13T17:00:00Z,25.0870,-80.5190,1.5,23.52,1111122 
ENP,ioos.station.NOAA.NDBC:BNKF1:1,2017-12-13T18:00:00Z,25.0870,-80.5190,1.5,23.52,1111122 
ENP,ioos.station.NOAA.NDBC:BNKF1:1,2017-12-13T19:00:00Z,25.0870,-80.5190,1.5,23.55,1111122 
ENP,ioos.station.NOAA.NDBC:BNKF1:1,2017-12-13T20:00:00Z,25.0870,-80.5190,1.5,23.57,1111122 
ENP,ioos.station.NOAA.NDBC:BNKF1:1,2017-12-13T21:00:00Z,25.0870,-80.5190,1.5,23.6,1111122 
ENP,ioos.station.NOAA.NDBC:BNKF1:1,2017-12-13T22:00:00Z,25.0870,-80.5190,1.5,23.6,1111122 
ENP,ioos.station.NOAA.NDBC:BNKF1:1,2017-12-14T10:00:00Z,25.0870,-80.5190,1.5,23.27,1111122 
ENP,ioos.station.NOAA.NDBC:BNKF1:1,2017-12-14T12:00:00Z,25.0870,-80.5190,1.5,23.23,1111122 
ENP,ioos.station.NOAA.NDBC:BNKF1:1,2017-12-14T13:00:00Z,25.0870,-80.5190,1.5,23.16,1111122 
ENP,ioos.station.NOAA.NDBC:BNKF1:1,2017-12-14T14:00:00Z,25.0870,-80.5190,1.5,23.21,1111122 
ENP,ioos.station.NOAA.NDBC:BNKF1:1,2017-12-14T15:00:00Z,25.0870,-80.5190,1.5,23.39,1111122 
ENP,ioos.station.NOAA.NDBC:BNKF1:1,2017-12-14T16:00:00Z,25.0870,-80.5190,1.5,23.46,1111122 
ENP,ioos.station.NOAA.NDBC:BNKF1:1,2017-12-14T17:00:00Z,25.0870,-80.5190,1.5,23.46,1111122 
ENP,ioos.station.NOAA.NDBC:BNKF1:1,2017-12-14T18:00:00Z,25.0870,-80.5190,1.5,23.39,1111122 
ENP,ioos.station.NOAA.NDBC:BNKF1:1,2017-12-14T19:00:00Z,25.0870,-80.5190,1.5,23.37,1111122 
ENP,ioos.station.NOAA.NDBC:BNKF1:1,2017-12-14T20:00:00Z,25.0870,-80.5190,1.5,23.35,1111122 
ENP,ioos.station.NOAA.NDBC:BNKF1:1,2017-12-14T23:00:00Z,25.0870,-80.5190,1.5,23.34,1111122 
ENP,ioos.station.NOAA.NDBC:BNKF1:1,2017-12-15T00:00:00Z,25.0870,-80.5190,1.5,23.34,1111122 
ENP,ioos.station.NOAA.NDBC:BNKF1:1,2017-12-15T01:00:00Z,25.0870,-80.5190,1.5,23.34,1111122 
ENP,ioos.station.NOAA.NDBC:BNKF1:1,2017-12-15T02:00:00Z,25.0870,-80.5190,1.5,23.32,1111122 
ENP,ioos.station.NOAA.NDBC:BNKF1:1,2017-12-15T05:00:00Z,25.0870,-80.5190,1.5,23.39,1111122 
ENP,ioos.station.NOAA.NDBC:BNKF1:1,2017-12-15T08:00:00Z,25.0870,-80.5190,1.5,23.37,1111122 
ENP,ioos.station.NOAA.NDBC:BNKF1:1,2017-12-15T09:00:00Z,25.0870,-80.5190,1.5,23.37,1111122 
ENP,ioos.station.NOAA.NDBC:BNKF1:1,2017-12-15T10:00:00Z,25.0870,-80.5190,1.5,23.39,1111122 
ENP,ioos.station.NOAA.NDBC:BNKF1:1,2017-12-15T12:00:00Z,25.0870,-80.5190,1.5,23.39,1111122 
ENP,ioos.station.NOAA.NDBC:BNKF1:1,2017-12-15T13:00:00Z,25.0870,-80.5190,1.5,23.4,1111122 
ENP,ioos.station.NOAA.NDBC:BNKF1:1,2017-12-15T14:00:00Z,25.0870,-80.5190,1.5,23.4,1111122 
ENP,ioos.station.NOAA.NDBC:BNKF1:1,2017-12-15T15:00:00Z,25.0870,-80.5190,1.5,23.4,1111122 
ENP,ioos.station.NOAA.NDBC:BNKF1:1,2017-12-15T16:00:00Z,25.0870,-80.5190,1.5,23.4,1111122 
ENP,ioos.station.NOAA.NDBC:BNKF1:1,2017-12-15T17:00:00Z,25.0870,-80.5190,1.5,23.42,1111122 
ENP,ioos.station.NOAA.NDBC:BNKF1:1,2017-12-15T18:00:00Z,25.0870,-80.5190,1.5,23.44,1111122 
ENP,ioos.station.NOAA.NDBC:BNKF1:1,2017-12-15T19:00:00Z,25.0870,-80.5190,1.5,23.46,1111122 
ENP,ioos.station.NOAA.NDBC:BNKF1:1,2017-12-15T20:00:00Z,25.0870,-80.5190,1.5,23.46,1111122 
ENP,ioos.station.NOAA.NDBC:BNKF1:1,2017-12-15T21:00:00Z,25.0870,-80.5190,1.5,23.46,1111122 
ENP,ioos.station.NOAA.NDBC:BNKF1:1,2017-12-15T22:00:00Z,25.0870,-80.5190,1.5,23.46,1111122 
ENP,ioos.station.NOAA.NDBC:BNKF1:1,2017-12-15T23:00:00Z,25.0870,-80.5190,1.5,23.48,1111122 
ENP,ioos.station.NOAA.NDBC:BNKF1:1,2017-12-16T00:00:00Z,25.0870,-80.5190,1.5,23.6,1111122 
ENP,ioos.station.NOAA.NDBC:BNKF1:1,2017-12-16T01:00:00Z,25.0870,-80.5190,1.5,23.1,1111122 
ENP,ioos.station.NOAA.NDBC:BNKF1:1,2017-12-16T02:00:00Z,25.0870,-80.5190,1.5,23.11,1111122 
ENP,ioos.station.NOAA.NDBC:BNKF1:1,2017-12-16T04:00:00Z,25.0870,-80.5190,1.5,23.81,1111122 
ENP,ioos.station.NOAA.NDBC:BNKF1:1,2017-12-16T05:00:00Z,25.0870,-80.5190,1.5,23.98,1111122 
ENP,ioos.station.NOAA.NDBC:BNKF1:1,2017-12-16T07:00:00Z,25.0870,-80.5190,1.5,22.46,1111122 
ENP,ioos.station.NOAA.NDBC:BNKF1:1,2017-12-16T08:00:00Z,25.0870,-80.5190,1.5,22.36,1111122 
ENP,ioos.station.NOAA.NDBC:BNKF1:1,2017-12-16T09:00:00Z,25.0870,-80.5190,1.5,22.28,1111122 
ENP,ioos.station.NOAA.NDBC:BNKF1:1,2017-12-16T10:00:00Z,25.0870,-80.5190,1.5,22.27,1111122 
ENP,ioos.station.NOAA.NDBC:BNKF1:1,2017-12-16T12:00:00Z,25.0870,-80.5190,1.5,22.3,1111122 
ENP,ioos.station.NOAA.NDBC:BNKF1:1,2017-12-16T13:00:00Z,25.0870,-80.5190,1.5,22.36,1111122 
ENP,ioos.station.NOAA.NDBC:BNKF1:1,2017-12-16T14:00:00Z,25.0870,-80.5190,1.5,22.36,1111122 
ENP,ioos.station.NOAA.NDBC:BNKF1:1,2017-12-16T15:00:00Z,25.0870,-80.5190,1.5,22.37,1111122 
ENP,ioos.station.NOAA.NDBC:BNKF1:1,2017-12-16T16:00:00Z,25.0870,-80.5190,1.5,22.27,1111122 
ENP,ioos.station.NOAA.NDBC:BNKF1:1,2017-12-16T17:00:00Z,25.0870,-80.5190,1.5,22.27,1111122 
ENP,ioos.station.NOAA.NDBC:BNKF1:1,2017-12-16T18:00:00Z,25.0870,-80.5190,1.5,22.23,1111122 
ENP,ioos.station.NOAA.NDBC:BNKF1:1,2017-12-16T19:00:00Z,25.0870,-80.5190,1.5,22.26,1111122 
ENP,ioos.station.NOAA.NDBC:BNKF1:1,2017-12-16T20:00:00Z,25.0870,-80.5190,1.5,22.27,1111122 
ENP,ioos.station.NOAA.NDBC:BNKF1:1,2017-12-16T21:00:00Z,25.0870,-80.5190,1.5,22.29,1111122 
ENP,ioos.station.NOAA.NDBC:BNKF1:1,2017-12-16T22:00:00Z,25.0870,-80.5190,1.5,22.3,1111122 